This is the latest recevied weather packets stored in our database for station/object KGRR-WX. If no packets are shown the sender has not sent any weather packets the latest 10 day(s).
| Time | Temp. | Humidity | Pressure | Rain* | Wind** | Luminosity | Snow |
|---|---|---|---|---|---|---|---|
| 1788309905 | 25° C | 78% | 985.4 hPa | 0 mm | - | - | - |
| 1788309006 | 25.56° C | 76% | 985.5 hPa | 0 mm | - | - | - |
| 1788308105 | 25.56° C | 76% | 985.5 hPa | 0 mm | - | - | - |
| 1788307207 | 26.11° C | 76% | 985.5 hPa | 0 mm | - | - | - |
| 1788306305 | 26.67° C | 70% | 985.3 hPa | 0 mm | - | - | - |
| 1788305405 | 27.22° C | 58% | 985.4 hPa | 0 mm | - | - | - |
| 1788304505 | 28.89° C | 58% | 985.5 hPa | 0 mm | - | - | - |
| 1788303605 | 28.89° C | 58% | 985.5 hPa | 0 mm | - | - | - |
| 1788302705 | 29.44° C | 66% | 986.3 hPa | 0 mm | - | - | - |
| 1788301805 | 30° C | 54% | 986.4 hPa | 0 mm | - | - | - |
| 1788300905 | 30.56° C | 54% | 986.4 hPa | 0 mm | - | - | - |
| 1788300006 | 30.56° C | 54% | 986.4 hPa | 0 mm | - | - | - |
| 1788299105 | 30.56° C | 62% | 986 hPa | 0 mm | - | - | - |
| 1788298205 | 30° C | 60% | 985.9 hPa | 0 mm | - | - | - |
| 1788297305 | 30.56° C | 60% | 985.9 hPa | 0 mm | - | - | - |
| 1788296406 | 30.56° C | 60% | 985.9 hPa | 0 mm | - | - | - |
| 1788295505 | 30.56° C | 63% | 985.5 hPa | 0 mm | - | - | - |
| 1788294630 | 30.56° C | 66% | 985.5 hPa | 0 mm | - | - | - |
| 1788293705 | 30.56° C | 66% | 985.5 hPa | 0 mm | - | - | - |
| 1788292806 | 30.56° C | 60% | 985.7 hPa | 0 mm | - | - | - |
| 1788291905 | 30° C | 61% | 985.5 hPa | 0 mm | - | - | - |
| 1788291005 | 30° C | 61% | 985.5 hPa | 0 mm | - | - | - |
| 1788290105 | 31.67° C | 61% | 985.6 hPa | 0 mm | - | - | - |
| 1788289206 | 31.67° C | 61% | 985.6 hPa | 0 mm | - | - | - |
| 1788288305 | 31.11° C | 56% | 986.5 hPa | 0 mm | - | - | - |
* Rain latest hour (hover to see other rain measurements)
** Current wind speed in m/s (hover to see current wind gust speed)